Weather at El Gora Airport

Public forecast

Using degrees Celsius for public forecast. Weather courtesy of forecast.io.

Closest aviation weather report (METAR) to El Gora Airport

Report is more than 6 hours old.

Closest report is El Arish International Airport, 15.2 nm (28.2 km) W. Retrieved 2020/12/20 13:00 UTC (10 months ago):

HEAR 201300Z N CHECK TEXT NEW ENDING ADDED OEJNYFYX

Aviation forecast (TAF) for El Gora Airport

Forecast is more than 12 hours old.

Retrieved 2021/09/30 18:00 UTC (21 days ago):

TAF HEGR 301700Z 3018/0124 30008KT 9999 SCT025 TEMPO 0100/0106 VRB03KT 3000 BR